This is the latest recevied weather packets stored in our database for station/object KD2VWU. If no packets are shown the sender has not sent any weather packets the latest 10 day(s).
| Time | Temp. | Humidity | Pressure | Rain* | Wind** | Luminosity | Snow |
|---|---|---|---|---|---|---|---|
| 1777670140 | 16.67° C | 40% | 1007 hPa | 0 mm | - | - | - |
| 1777669838 | 16.67° C | 42% | 1007 hPa | 0 mm | - | - | - |
| 1777669534 | 16.67° C | 40% | 1006.7 hPa | 0 mm | - | - | - |
| 1777669231 | 17.22° C | 38% | 1006.9 hPa | 0 mm | - | - | - |
| 1777668927 | 17.78° C | 39% | 1006.9 hPa | 0 mm | - | - | - |
| 1777668625 | 17.22° C | 42% | 1007 hPa | 0 mm | - | - | - |
| 1777668321 | 17.22° C | 40% | 1006.9 hPa | 0 mm | - | - | - |
| 1777668017 | 17.78° C | 40% | 1007.1 hPa | 0 mm | - | - | - |
| 1777667714 | 17.78° C | 43% | 1007 hPa | 0 mm | - | - | - |
| 1777667412 | 17.78° C | 43% | 1007.3 hPa | 0 mm | - | - | - |
| 1777667108 | 17.78° C | 39% | 1007.1 hPa | 0 mm | - | - | - |
| 1777666805 | 17.78° C | 38% | 1007 hPa | 0 mm | - | - | - |
| 1777666502 | 17.78° C | 38% | 1006.8 hPa | 0 mm | - | - | - |
| 1777666199 | 17.78° C | 39% | 1007.1 hPa | 0 mm | - | - | - |
| 1777665896 | 18.33° C | 36% | 1007.1 hPa | 0 mm | - | - | - |
| 1777665593 | 18.89° C | 44% | 1007.1 hPa | 0 mm | - | - | - |
| 1777665290 | 19.44° C | 40% | 1007.1 hPa | 0 mm | - | - | - |
| 1777664985 | 17.78° C | 42% | 1007 hPa | 0 mm | - | - | - |
| 1777664681 | 17.78° C | 39% | 1007.1 hPa | 0 mm | - | - | - |
| 1777664377 | 17.22° C | 39% | 1007.2 hPa | 0 mm | - | - | - |
| 1777664076 | 17.78° C | 36% | 1007.3 hPa | 0 mm | - | - | - |
| 1777663773 | 17.78° C | 38% | 1007.4 hPa | 0 mm | - | - | - |
| 1777663470 | 17.78° C | 41% | 1007.5 hPa | 0 mm | - | - | - |
| 1777663168 | 17.22° C | 39% | 1007.6 hPa | 0 mm | - | - | - |
| 1777662865 | 17.22° C | 40% | 1007.7 hPa | 0 mm | - | - | - |
* Rain latest hour (hover to see other rain measurements)
** Current wind speed in m/s (hover to see current wind gust speed)